Time,TemperatureF,DewpointF,PressureIn,WindDirection,WindDirectionDegrees,WindSpeedMPH,WindSpeedGustMPH,Humidity,HourlyPrecipIn,Conditions,Clouds,dailyrainin,SoftwareType,DateUTC
2013-11-28 00:02:00,45.1,40.3,30.18,NE,42,6.0,10.0,83,0.01,,,0.28,meteohub,2013-11-28 05:02:00,
2013-11-28 00:07:00,45.0,40.1,30.18,NNE,29,4.0,10.0,83,0.02,,,0.01,meteohub,2013-11-28 05:07:00,
2013-11-28 00:12:00,44.6,39.7,30.19,NNE,32,4.0,10.0,83,0.02,,,0.01,meteohub,2013-11-28 05:12:00,
2013-11-28 00:17:00,44.4,39.6,30.18,NE,35,5.0,9.0,83,0.02,,,0.01,meteohub,2013-11-28 05:17:00,
2013-11-28 00:22:00,44.4,39.6,30.18,NNE,13,1.0,9.0,83,0.01,,,0.01,meteohub,2013-11-28 05:22:00,
2013-11-28 00:27:00,44.2,39.4,30.19,NNE,24,5.0,9.0,83,0.01,,,0.01,meteohub,2013-11-28 05:27:00,
2013-11-28 00:32:00,44.1,39.2,30.18,NNE,19,6.0,9.0,83,0.01,,,0.01,meteohub,2013-11-28 05:32:00,
2013-11-28 00:37:00,43.9,39.0,30.19,NNE,24,4.0,9.0,83,0.01,,,0.01,meteohub,2013-11-28 05:37:00,
2013-11-28 00:42:00,43.5,38.7,30.19,NE,38,4.0,8.0,83,0.01,,,0.01,meteohub,2013-11-28 05:42:00,
2013-11-28 00:47:00,43.3,38.5,30.19,NE,37,5.0,8.0,83,0.01,,,0.01,meteohub,2013-11-28 05:47:00,
2013-11-28 00:52:00,43.3,38.8,30.18,NNE,31,4.0,9.0,84,0.01,,,0.01,meteohub,2013-11-28 05:52:00,
2013-11-28 00:57:00,43.2,38.3,30.18,NE,37,5.0,9.0,83,0.02,,,0.02,meteohub,2013-11-28 05:57:00,
2013-11-28 01:02:00,43.2,38.3,30.18,NE,45,6.0,9.0,83,0.02,,,0.02,meteohub,2013-11-28 06:02:00,
2013-11-28 01:07:00,43.2,38.3,30.18,NE,47,2.0,8.0,83,0.01,,,0.02,meteohub,2013-11-28 06:07:00,
2013-11-28 01:12:00,43.0,38.5,30.19,NE,45,4.0,7.0,84,0.01,,,0.02,meteohub,2013-11-28 06:12:00,
2013-11-28 01:17:00,42.8,38.3,30.19,NE,48,4.0,7.0,84,0.01,,,0.02,meteohub,2013-11-28 06:17:00,
2013-11-28 01:22:00,42.8,38.3,30.19,NE,34,3.0,8.0,84,0.01,,,0.02,meteohub,2013-11-28 06:22:00,
2013-11-28 01:27:00,42.8,38.3,30.19,NE,44,4.0,8.0,84,0.01,,,0.02,meteohub,2013-11-28 06:27:00,
2013-11-28 01:32:00,42.6,38.1,30.19,NE,36,5.0,8.0,84,0.01,,,0.02,meteohub,2013-11-28 06:32:00,
2013-11-28 01:37:00,42.6,38.1,30.19,NE,50,4.0,7.0,84,0.01,,,0.02,meteohub,2013-11-28 06:37:00,
2013-11-28 01:42:00,42.6,38.1,30.19,NE,35,2.0,9.0,84,0.01,,,0.02,meteohub,2013-11-28 06:42:00,
2013-11-28 01:47:00,42.4,37.6,30.19,NE,42,4.0,9.0,83,0.01,,,0.02,meteohub,2013-11-28 06:47:00,
2013-11-28 01:52:00,42.4,37.9,30.18,NNE,25,5.0,8.0,84,0.00,,,0.02,meteohub,2013-11-28 06:52:00,
2013-11-28 01:57:00,42.4,37.6,30.18,NE,34,6.0,8.0,83,0.00,,,0.02,meteohub,2013-11-28 06:57:00,
2013-11-28 02:02:00,42.4,37.6,30.19,NE,47,3.0,9.0,83,0.00,,,0.02,meteohub,2013-11-28 07:02:00,
2013-11-28 02:07:00,42.4,37.4,30.19,NE,42,5.0,10.0,82,0.00,,,0.02,meteohub,2013-11-28 07:07:00,
2013-11-28 02:12:00,42.4,37.4,30.19,NNE,23,9.0,10.0,82,0.00,,,0.02,meteohub,2013-11-28 07:12:00,
2013-11-28 02:17:00,42.3,36.9,30.19,NNE,29,8.0,12.0,81,0.00,,,0.02,meteohub,2013-11-28 07:17:00,
2013-11-28 02:22:00,42.3,36.9,30.19,NNE,32,5.0,12.0,81,0.00,,,0.02,meteohub,2013-11-28 07:22:00,
2013-11-28 02:27:00,42.3,36.5,30.19,NNE,20,4.0,12.0,80,0.00,,,0.02,meteohub,2013-11-28 07:27:00,
2013-11-28 02:32:00,42.1,36.3,30.19,NNE,32,5.0,9.0,80,0.00,,,0.02,meteohub,2013-11-28 07:32:00,
2013-11-28 02:37:00,42.1,36.3,30.19,NNE,31,8.0,9.0,80,0.00,,,0.02,meteohub,2013-11-28 07:37:00,
2013-11-28 02:42:00,41.9,35.8,30.19,NNE,30,5.0,12.0,79,0.00,,,0.02,meteohub,2013-11-28 07:42:00,
2013-11-28 02:47:00,41.7,35.8,30.19,NE,42,5.0,12.0,79,0.00,,,0.02,meteohub,2013-11-28 07:47:00,
2013-11-28 02:52:00,41.7,35.8,30.19,NNE,22,4.0,12.0,79,0.00,,,0.02,meteohub,2013-11-28 07:52:00,
2013-11-28 02:57:00,41.9,35.8,30.20,NNE,32,5.0,13.0,79,0.00,,,0.02,meteohub,2013-11-28 07:57:00,
2013-11-28 03:02:00,41.9,35.6,30.20,NNE,30,4.0,13.0,78,0.00,,,0.02,meteohub,2013-11-28 08:02:00,
2013-11-28 03:07:00,41.7,35.4,30.20,NNE,23,9.0,13.0,78,0.00,,,0.02,meteohub,2013-11-28 08:07:00,
2013-11-28 03:12:00,41.7,35.4,30.20,NE,40,5.0,12.0,78,0.00,,,0.02,meteohub,2013-11-28 08:12:00,
2013-11-28 03:17:00,41.7,35.1,30.20,NE,39,6.0,12.0,77,0.00,,,0.02,meteohub,2013-11-28 08:17:00,
2013-11-28 03:22:00,41.7,34.7,30.20,NNE,29,5.0,12.0,76,0.00,,,0.02,meteohub,2013-11-28 08:22:00,
2013-11-28 03:27:00,41.7,35.1,30.20,NNE,25,8.0,12.0,77,0.00,,,0.02,meteohub,2013-11-28 08:27:00,
2013-11-28 03:32:00,41.5,34.5,30.20,NE,39,4.0,13.0,76,0.00,,,0.02,meteohub,2013-11-28 08:32:00,
2013-11-28 03:37:00,41.4,34.3,30.21,NNE,32,3.0,13.0,76,0.00,,,0.02,meteohub,2013-11-28 08:37:00,
2013-11-28 03:42:00,41.4,34.3,30.21,NNE,26,4.0,12.0,76,0.00,,,0.02,meteohub,2013-11-28 08:42:00,
2013-11-28 03:47:00,41.2,34.5,30.21,NE,40,7.0,12.0,77,0.00,,,0.02,meteohub,2013-11-28 08:47:00,
2013-11-28 03:52:00,41.0,34.3,30.21,NNE,32,8.0,12.0,77,0.00,,,0.02,meteohub,2013-11-28 08:52:00,
2013-11-28 03:57:00,40.8,34.2,30.22,North,0,8.0,14.0,77,0.00,,,0.02,meteohub,2013-11-28 08:57:00,
2013-11-28 04:02:00,40.8,33.8,30.22,NNE,21,7.0,14.0,76,0.00,,,0.02,meteohub,2013-11-28 09:02:00,
2013-11-28 04:07:00,40.8,33.8,30.22,NNE,16,8.0,14.0,76,0.00,,,0.02,meteohub,2013-11-28 09:07:00,
2013-11-28 04:12:00,40.6,33.6,30.22,NNE,28,10.0,13.0,76,0.00,,,0.02,meteohub,2013-11-28 09:12:00,
2013-11-28 04:17:00,40.6,33.6,30.22,NE,43,6.0,13.0,76,0.00,,,0.02,meteohub,2013-11-28 09:17:00,
2013-11-28 04:22:00,40.5,33.4,30.22,NNE,27,7.0,14.0,76,0.00,,,0.02,meteohub,2013-11-28 09:22:00,
2013-11-28 04:27:00,40.5,34.2,30.22,NNE,20,6.0,14.0,78,0.00,,,0.02,meteohub,2013-11-28 09:27:00,
2013-11-28 04:32:00,40.5,34.2,30.23,NNE,12,8.0,14.0,78,0.00,,,0.02,meteohub,2013-11-28 09:32:00,
2013-11-28 04:37:00,40.3,34.0,30.23,NNE,24,6.0,14.0,78,0.00,,,0.02,meteohub,2013-11-28 09:37:00,
2013-11-28 04:42:00,40.1,33.4,30.23,NE,38,15.0,15.0,77,0.00,,,0.02,meteohub,2013-11-28 09:42:00,
2013-11-28 04:47:00,40.3,33.6,30.23,North,355,6.0,16.0,77,0.00,,,0.02,meteohub,2013-11-28 09:47:00,
2013-11-28 04:52:00,40.1,33.1,30.24,NE,40,8.0,16.0,76,0.00,,,0.02,meteohub,2013-11-28 09:52:00,
2013-11-28 04:57:00,39.9,32.9,30.24,NE,38,4.0,16.0,76,0.00,,,0.02,meteohub,2013-11-28 09:57:00,
2013-11-28 05:02:00,39.7,32.7,30.24,NNE,30,5.0,11.0,76,0.00,,,0.02,meteohub,2013-11-28 10:02:00,
2013-11-28 05:07:00,39.6,32.5,30.24,NE,42,8.0,12.0,76,0.00,,,0.02,meteohub,2013-11-28 10:07:00,
2013-11-28 05:12:00,39.6,32.4,30.25,North,5,6.0,15.0,75,0.00,,,0.02,meteohub,2013-11-28 10:12:00,
2013-11-28 05:17:00,39.6,32.5,30.25,NE,39,4.0,15.0,76,0.00,,,0.02,meteohub,2013-11-28 10:17:00,
2013-11-28 05:22:00,39.4,32.5,30.25,NNE,28,6.0,15.0,76,0.00,,,0.02,meteohub,2013-11-28 10:22:00,
2013-11-28 05:27:00,39.4,32.7,30.25,NNE,33,4.0,15.0,77,0.00,,,0.02,meteohub,2013-11-28 10:27:00,
2013-11-28 05:32:00,39.0,32.4,30.25,NE,39,5.0,13.0,77,0.00,,,0.02,meteohub,2013-11-28 10:32:00,
2013-11-28 05:42:00,38.7,32.7,30.25,NNE,26,6.0,9.0,79,0.00,,,0.02,meteohub,2013-11-28 10:42:00,
2013-11-28 05:47:00,38.7,33.1,30.25,NNE,30,1.0,7.0,80,0.00,,,0.02,meteohub,2013-11-28 10:47:00,
2013-11-28 05:52:00,38.5,32.9,30.25,NE,35,2.0,8.0,80,0.00,,,0.02,meteohub,2013-11-28 10:52:00,
2013-11-28 05:57:00,38.5,33.1,30.26,ENE,57,5.0,8.0,81,0.00,,,0.02,meteohub,2013-11-28 10:57:00,
2013-11-28 06:02:00,38.3,32.9,30.26,NNE,14,4.0,9.0,81,0.00,,,0.02,meteohub,2013-11-28 11:02:00,
2013-11-28 06:07:00,38.3,33.3,30.26,NNE,24,4.0,9.0,82,0.00,,,0.02,meteohub,2013-11-28 11:07:00,
2013-11-28 06:12:00,38.3,33.3,30.26,North,9,4.0,9.0,82,0.00,,,0.02,meteohub,2013-11-28 11:12:00,
2013-11-28 06:17:00,38.3,33.3,30.26,NNE,26,5.0,9.0,82,0.00,,,0.02,meteohub,2013-11-28 11:17:00,
2013-11-28 06:22:00,38.3,33.3,30.26,North,10,4.0,9.0,82,0.00,,,0.02,meteohub,2013-11-28 11:22:00,
2013-11-28 06:27:00,38.3,33.6,30.26,North,355,2.0,9.0,83,0.00,,,0.02,meteohub,2013-11-28 11:27:00,
2013-11-28 06:32:00,38.1,33.4,30.26,NE,38,3.0,8.0,83,0.00,,,0.02,meteohub,2013-11-28 11:32:00,
2013-11-28 06:37:00,38.1,33.4,30.27,NE,40,4.0,7.0,83,0.00,,,0.02,meteohub,2013-11-28 11:37:00,
2013-11-28 06:42:00,37.9,33.3,30.27,NE,34,7.0,9.0,83,0.00,,,0.02,meteohub,2013-11-28 11:42:00,
2013-11-28 06:47:00,37.9,33.3,30.27,North,0,3.0,9.0,83,0.00,,,0.02,meteohub,2013-11-28 11:47:00,
2013-11-28 06:52:00,37.8,33.4,30.27,NNE,31,5.0,10.0,84,0.00,,,0.02,meteohub,2013-11-28 11:52:00,
2013-11-28 06:57:00,37.8,33.4,30.27,NNE,31,2.0,10.0,84,0.00,,,0.02,meteohub,2013-11-28 11:57:00,
2013-11-28 07:02:00,37.8,33.6,30.27,NNE,31,6.0,9.0,85,0.00,,,0.02,meteohub,2013-11-28 12:02:00,
2013-11-28 07:07:00,37.6,33.3,30.27,NE,38,3.0,8.0,84,0.00,,,0.02,meteohub,2013-11-28 12:07:00,
2013-11-28 07:12:00,37.4,33.3,30.28,NNE,31,3.0,8.0,85,0.00,,,0.02,meteohub,2013-11-28 12:12:00,
2013-11-28 07:17:00,37.6,33.4,30.28,NNE,12,4.0,9.0,85,0.00,,,0.02,meteohub,2013-11-28 12:17:00,
2013-11-28 07:22:00,37.6,33.4,30.28,North,0,5.0,9.0,85,0.00,,,0.02,meteohub,2013-11-28 12:22:00,
2013-11-28 07:27:00,37.8,33.6,30.29,NNW,346,3.0,9.0,85,0.00,,,0.02,meteohub,2013-11-28 12:27:00,
2013-11-28 07:32:00,37.8,33.4,30.29,North,5,3.0,9.0,84,0.00,,,0.02,meteohub,2013-11-28 12:32:00,
2013-11-28 07:37:00,38.1,34.0,30.29,North,350,6.0,9.0,85,0.00,,,0.02,meteohub,2013-11-28 12:37:00,
2013-11-28 07:42:00,38.5,34.3,30.29,NNE,22,2.0,9.0,85,0.00,,,0.02,meteohub,2013-11-28 12:42:00,
2013-11-28 07:47:00,38.5,34.2,30.29,North,355,5.0,9.0,84,0.00,,,0.02,meteohub,2013-11-28 12:47:00,
2013-11-28 07:52:00,38.5,34.2,30.29,NNE,15,5.0,8.0,84,0.00,,,0.02,meteohub,2013-11-28 12:52:00,
2013-11-28 07:57:00,38.7,34.0,30.29,NNW,346,7.0,9.0,83,0.00,,,0.02,meteohub,2013-11-28 12:57:00,
2013-11-28 08:02:00,38.8,34.2,30.29,NNE,19,6.0,9.0,83,0.00,,,0.02,meteohub,2013-11-28 13:02:00,
2013-11-28 08:07:00,38.8,33.4,30.29,NE,34,6.0,10.0,81,0.00,,,0.02,meteohub,2013-11-28 13:07:00,
2013-11-28 08:12:00,38.8,33.4,30.30,North,355,8.0,13.0,81,0.00,,,0.02,meteohub,2013-11-28 13:12:00,
2013-11-28 08:17:00,39.2,33.6,30.30,NNE,15,12.0,13.0,80,0.00,,,0.02,meteohub,2013-11-28 13:17:00,
2013-11-28 08:22:00,39.6,34.0,30.30,North,9,8.0,15.0,80,0.00,,,0.02,meteohub,2013-11-28 13:22:00,
2013-11-28 08:27:00,39.7,33.8,30.30,NNE,21,6.0,15.0,79,0.00,,,0.02,meteohub,2013-11-28 13:27:00,
2013-11-28 08:32:00,39.9,33.6,30.30,NNE,13,4.0,15.0,78,0.00,,,0.02,meteohub,2013-11-28 13:32:00,
2013-11-28 08:37:00,40.3,34.3,30.30,North,355,4.0,11.0,79,0.00,,,0.02,meteohub,2013-11-28 13:37:00,
2013-11-28 08:42:00,40.5,34.2,30.30,North,355,4.0,11.0,78,0.00,,,0.02,meteohub,2013-11-28 13:42:00,
2013-11-28 08:47:00,40.6,34.3,30.31,NNE,32,5.0,11.0,78,0.00,,,0.02,meteohub,2013-11-28 13:47:00,
2013-11-28 08:52:00,40.8,33.8,30.30,North,351,8.0,11.0,76,0.00,,,0.02,meteohub,2013-11-28 13:52:00,
2013-11-28 08:57:00,41.2,34.2,30.31,NNW,344,9.0,12.0,76,0.00,,,0.02,meteohub,2013-11-28 13:57:00,
2013-11-28 09:02:00,41.4,34.3,30.31,NNE,17,6.0,12.0,76,0.00,,,0.02,meteohub,2013-11-28 14:02:00,
2013-11-28 09:07:00,42.1,35.1,30.31,NE,41,7.0,11.0,76,0.00,,,0.02,meteohub,2013-11-28 14:07:00,
2013-11-28 09:12:00,42.4,35.1,30.32,NE,50,0.0,11.0,75,0.00,,,0.02,meteohub,2013-11-28 14:12:00,
2013-11-28 09:17:00,43.0,35.6,30.32,NNW,344,4.0,10.0,75,0.00,,,0.02,meteohub,2013-11-28 14:17:00,
2013-11-28 09:22:00,43.2,35.1,30.32,North,10,3.0,9.0,73,0.00,,,0.02,meteohub,2013-11-28 14:22:00,
2013-11-28 09:27:00,43.5,35.8,30.32,NNE,15,7.0,10.0,74,0.00,,,0.02,meteohub,2013-11-28 14:27:00,
2013-11-28 09:32:00,44.1,36.7,30.32,North,355,2.0,10.0,75,0.00,,,0.02,meteohub,2013-11-28 14:32:00,
2013-11-28 09:37:00,44.2,36.1,30.33,North,355,5.0,10.0,73,0.00,,,0.02,meteohub,2013-11-28 14:37:00,
2013-11-28 09:42:00,44.4,36.7,30.32,NNW,340,5.0,10.0,74,0.00,,,0.02,meteohub,2013-11-28 14:42:00,
2013-11-28 09:47:00,44.8,36.7,30.33,NNE,13,5.0,10.0,73,0.00,,,0.02,meteohub,2013-11-28 14:47:00,
2013-11-28 09:52:00,45.1,37.4,30.32,NNW,342,4.0,10.0,74,0.00,,,0.02,meteohub,2013-11-28 14:52:00,
2013-11-28 09:57:00,45.9,37.8,30.32,North,0,5.0,11.0,73,0.00,,,0.02,meteohub,2013-11-28 14:57:00,
2013-11-28 10:02:00,46.4,38.3,30.32,North,0,2.0,11.0,73,0.00,,,0.02,meteohub,2013-11-28 15:02:00,
2013-11-28 10:07:00,46.9,38.7,30.33,North,5,5.0,11.0,73,0.00,,,0.02,meteohub,2013-11-28 15:07:00,
2013-11-28 10:12:00,47.1,38.5,30.33,North,0,4.0,10.0,72,0.00,,,0.02,meteohub,2013-11-28 15:12:00,
2013-11-28 10:17:00,47.5,38.8,30.33,North,0,6.0,10.0,72,0.00,,,0.02,meteohub,2013-11-28 15:17:00,
2013-11-28 10:22:00,47.5,38.8,30.33,NNW,338,8.0,10.0,72,0.00,,,0.02,meteohub,2013-11-28 15:22:00,
2013-11-28 10:27:00,47.8,39.2,30.32,NNE,13,5.0,11.0,72,0.00,,,0.02,meteohub,2013-11-28 15:27:00,
2013-11-28 10:32:00,48.6,39.9,30.32,NNE,15,5.0,11.0,72,0.00,,,0.02,meteohub,2013-11-28 15:32:00,
2013-11-28 10:37:00,48.9,40.3,30.32,North,5,5.0,11.0,72,0.00,,,0.02,meteohub,2013-11-28 15:37:00,
2013-11-28 10:42:00,49.3,40.6,30.32,NE,41,3.0,11.0,72,0.00,,,0.02,meteohub,2013-11-28 15:42:00,
2013-11-28 10:47:00,49.6,40.6,30.32,NNW,333,7.0,11.0,71,0.00,,,0.02,meteohub,2013-11-28 15:47:00,
2013-11-28 10:52:00,50.4,41.7,30.32,NNE,27,8.0,11.0,72,0.01,,,0.03,meteohub,2013-11-28 15:52:00,
2013-11-28 10:57:00,50.5,41.9,30.32,North,5,6.0,12.0,72,0.01,,,0.03,meteohub,2013-11-28 15:57:00,
2013-11-28 11:02:00,51.3,42.6,30.32,NE,49,6.0,12.0,72,0.01,,,0.03,meteohub,2013-11-28 16:02:00,
2013-11-28 11:07:00,51.8,42.6,30.31,NNE,23,4.0,12.0,71,0.01,,,0.03,meteohub,2013-11-28 16:07:00,
2013-11-28 11:12:00,52.0,42.4,30.31,North,5,8.0,12.0,70,0.01,,,0.03,meteohub,2013-11-28 16:12:00,
2013-11-28 11:17:00,52.2,42.6,30.31,North,5,7.0,12.0,70,0.01,,,0.03,meteohub,2013-11-28 16:17:00,
2013-11-28 11:22:00,52.9,43.7,30.31,NNE,17,4.0,13.0,71,0.01,,,0.03,meteohub,2013-11-28 16:22:00,
2013-11-28 11:27:00,53.2,43.3,30.31,NNE,18,6.0,13.0,69,0.01,,,0.03,meteohub,2013-11-28 16:27:00,
2013-11-28 11:32:00,53.6,43.7,30.30,NE,34,6.0,12.0,69,0.01,,,0.03,meteohub,2013-11-28 16:32:00,
2013-11-28 11:37:00,53.8,43.5,30.30,ENE,66,4.0,12.0,68,0.01,,,0.03,meteohub,2013-11-28 16:37:00,
2013-11-28 11:42:00,54.1,43.9,30.29,NE,40,4.0,12.0,68,0.01,,,0.03,meteohub,2013-11-28 16:42:00,
2013-11-28 11:47:00,54.3,43.5,30.29,NNE,32,6.0,12.0,67,0.00,,,0.03,meteohub,2013-11-28 16:47:00,
2013-11-28 11:52:00,54.5,43.7,30.29,NE,36,6.0,13.0,67,0.00,,,0.03,meteohub,2013-11-28 16:52:00,
2013-11-28 11:57:00,54.3,43.5,30.29,NNE,23,11.0,13.0,67,0.00,,,0.03,meteohub,2013-11-28 16:57:00,
2013-11-28 12:02:00,54.9,44.4,30.29,NE,44,5.0,14.0,68,0.00,,,0.03,meteohub,2013-11-28 17:02:00,
2013-11-28 12:07:00,55.0,43.5,30.29,NE,44,11.0,14.0,65,0.00,,,0.03,meteohub,2013-11-28 17:07:00,
2013-11-28 12:12:00,55.0,43.5,30.28,NE,40,5.0,12.0,65,0.00,,,0.03,meteohub,2013-11-28 17:12:00,
2013-11-28 12:17:00,55.6,43.5,30.28,ENE,76,7.0,12.0,64,0.00,,,0.03,meteohub,2013-11-28 17:17:00,
2013-11-28 12:22:00,55.2,43.3,30.27,East,81,9.0,12.0,64,0.00,,,0.03,meteohub,2013-11-28 17:22:00,
2013-11-28 12:27:00,55.6,44.4,30.27,NE,44,6.0,10.0,66,0.00,,,0.03,meteohub,2013-11-28 17:27:00,
2013-11-28 12:32:00,56.1,44.6,30.27,NNE,17,9.0,11.0,65,0.00,,,0.03,meteohub,2013-11-28 17:32:00,
2013-11-28 12:37:00,56.7,44.6,30.27,North,9,4.0,11.0,64,0.00,,,0.03,meteohub,2013-11-28 17:37:00,
2013-11-28 12:42:00,56.8,44.4,30.26,NNE,20,8.0,11.0,63,0.00,,,0.03,meteohub,2013-11-28 17:42:00,
2013-11-28 12:47:00,56.8,44.4,30.26,NNE,24,3.0,11.0,63,0.00,,,0.03,meteohub,2013-11-28 17:47:00,
2013-11-28 12:52:00,57.4,45.0,30.26,NE,49,6.0,10.0,63,0.00,,,0.03,meteohub,2013-11-28 17:52:00,
2013-11-28 12:57:00,57.7,43.9,30.26,NE,47,3.0,10.0,60,0.00,,,0.03,meteohub,2013-11-28 17:57:00,
2013-11-28 13:02:00,57.4,44.1,30.26,NE,35,4.0,11.0,61,0.00,,,0.03,meteohub,2013-11-28 18:02:00,
2013-11-28 13:07:00,57.7,44.4,30.25,NNE,33,6.0,11.0,61,0.00,,,0.03,meteohub,2013-11-28 18:07:00,
2013-11-28 13:12:00,57.9,44.1,30.25,NNE,30,3.0,11.0,60,0.00,,,0.03,meteohub,2013-11-28 18:12:00,
2013-11-28 13:17:00,58.6,44.4,30.25,NNE,27,6.0,9.0,59,0.00,,,0.03,meteohub,2013-11-28 18:17:00,
2013-11-28 13:22:00,58.8,44.6,30.25,NE,38,5.0,8.0,59,0.00,,,0.03,meteohub,2013-11-28 18:22:00,
2013-11-28 13:27:00,59.0,43.7,30.25,NNE,13,4.0,8.0,57,0.00,,,0.03,meteohub,2013-11-28 18:27:00,
2013-11-28 13:32:00,58.8,43.7,30.24,NE,49,7.0,8.0,57,0.00,,,0.03,meteohub,2013-11-28 18:32:00,
2013-11-28 13:37:00,59.2,43.0,30.23,NE,50,5.0,8.0,55,0.00,,,0.03,meteohub,2013-11-28 18:37:00,
2013-11-28 13:42:00,59.4,43.2,30.23,NE,40,6.0,9.0,55,0.00,,,0.03,meteohub,2013-11-28 18:42:00,
2013-11-28 13:47:00,59.4,42.8,30.23,NE,42,4.0,10.0,54,0.00,,,0.03,meteohub,2013-11-28 18:47:00,
2013-11-28 13:52:00,59.5,41.9,30.23,ENE,77,0.0,10.0,52,0.00,,,0.03,meteohub,2013-11-28 18:52:00,
2013-11-28 13:57:00,59.7,42.1,30.22,NE,56,5.0,10.0,52,0.00,,,0.03,meteohub,2013-11-28 18:57:00,
2013-11-28 14:02:00,60.1,43.3,30.22,North,0,7.0,8.0,54,0.00,,,0.03,meteohub,2013-11-28 19:02:00,
2013-11-28 14:07:00,59.9,42.3,30.22,NNE,15,3.0,11.0,52,0.00,,,0.03,meteohub,2013-11-28 19:07:00,
2013-11-28 14:12:00,60.4,42.8,30.22,North,0,4.0,11.0,52,0.00,,,0.03,meteohub,2013-11-28 19:12:00,
2013-11-28 14:17:00,60.6,43.0,30.22,NE,35,5.0,11.0,52,0.00,,,0.03,meteohub,2013-11-28 19:17:00,
2013-11-28 14:22:00,60.6,43.0,30.22,WNW,302,5.0,9.0,52,0.00,,,0.03,meteohub,2013-11-28 19:22:00,
2013-11-28 14:27:00,61.0,43.7,30.22,NE,38,5.0,10.0,53,0.00,,,0.03,meteohub,2013-11-28 19:27:00,
2013-11-28 14:32:00,61.2,43.3,30.22,North,5,4.0,10.0,52,0.00,,,0.03,meteohub,2013-11-28 19:32:00,
2013-11-28 14:37:00,61.3,43.0,30.22,NNW,344,1.0,8.0,51,0.00,,,0.03,meteohub,2013-11-28 19:37:00,
2013-11-28 14:42:00,61.5,43.2,30.22,NNE,17,3.0,8.0,51,0.00,,,0.03,meteohub,2013-11-28 19:42:00,
2013-11-28 14:47:00,61.3,43.0,30.22,NE,40,3.0,8.0,51,0.00,,,0.03,meteohub,2013-11-28 19:47:00,
2013-11-28 14:52:00,61.9,43.0,30.22,NNE,30,5.0,9.0,50,0.00,,,0.03,meteohub,2013-11-28 19:52:00,
2013-11-28 14:57:00,62.1,43.2,30.22,NNE,13,2.0,9.0,50,0.00,,,0.03,meteohub,2013-11-28 19:57:00,
2013-11-28 15:02:00,62.1,43.7,30.22,NE,34,4.0,9.0,51,0.00,,,0.03,meteohub,2013-11-28 20:02:00,
2013-11-28 15:07:00,62.2,43.3,30.22,NE,42,1.0,9.0,50,0.00,,,0.03,meteohub,2013-11-28 20:07:00,
2013-11-28 15:12:00,62.2,43.9,30.22,East,79,1.0,10.0,51,0.00,,,0.03,meteohub,2013-11-28 20:12:00,
2013-11-28 15:17:00,62.4,46.6,30.22,NNE,20,5.0,10.0,56,0.00,,,0.03,meteohub,2013-11-28 20:17:00,
2013-11-28 15:22:00,62.2,46.8,30.22,NW,320,4.0,10.0,57,0.00,,,0.03,meteohub,2013-11-28 20:22:00,
2013-11-28 15:27:00,61.9,47.8,30.23,NNE,16,5.0,10.0,60,0.00,,,0.03,meteohub,2013-11-28 20:27:00,
2013-11-28 15:32:00,60.6,47.5,30.23,NNW,337,7.0,11.0,62,0.00,,,0.03,meteohub,2013-11-28 20:32:00,
2013-11-28 15:37:00,60.3,48.0,30.23,NW,319,5.0,11.0,64,0.00,,,0.03,meteohub,2013-11-28 20:37:00,
2013-11-28 15:42:00,59.9,48.0,30.23,NNW,344,6.0,11.0,65,0.00,,,0.03,meteohub,2013-11-28 20:42:00,
2013-11-28 15:47:00,59.5,48.2,30.23,NNW,333,4.0,10.0,66,0.00,,,0.03,meteohub,2013-11-28 20:47:00,
2013-11-28 15:52:00,59.4,48.4,30.23,NNW,335,3.0,12.0,67,0.00,,,0.03,meteohub,2013-11-28 20:52:00,
2013-11-28 15:57:00,59.4,48.7,30.24,NW,319,1.0,12.0,68,0.00,,,0.03,meteohub,2013-11-28 20:57:00,
2013-11-28 16:02:00,59.4,49.1,30.24,North,5,9.0,10.0,69,0.00,,,0.03,meteohub,2013-11-28 21:02:00,
2013-11-28 16:07:00,58.8,48.2,30.24,NW,320,5.0,11.0,68,0.00,,,0.03,meteohub,2013-11-28 21:07:00,
2013-11-28 16:12:00,58.5,48.4,30.24,NNW,337,5.0,12.0,69,0.00,,,0.03,meteohub,2013-11-28 21:12:00,
2013-11-28 16:17:00,58.5,48.7,30.24,NW,318,9.0,12.0,70,0.00,,,0.03,meteohub,2013-11-28 21:17:00,
2013-11-28 16:22:00,58.3,48.6,30.24,NW,324,10.0,12.0,70,0.00,,,0.03,meteohub,2013-11-28 21:22:00,
2013-11-28 16:27:00,57.9,48.6,30.25,North,350,5.0,12.0,71,0.00,,,0.03,meteohub,2013-11-28 21:27:00,
2013-11-28 16:32:00,57.9,48.6,30.25,North,355,5.0,12.0,71,0.00,,,0.03,meteohub,2013-11-28 21:32:00,
2013-11-28 16:37:00,57.7,48.4,30.25,North,0,6.0,12.0,71,0.00,,,0.03,meteohub,2013-11-28 21:37:00,
2013-11-28 16:42:00,57.6,48.6,30.25,NNW,334,9.0,12.0,72,0.00,,,0.03,meteohub,2013-11-28 21:42:00,
2013-11-28 16:47:00,57.6,48.6,30.25,NNW,341,2.0,12.0,72,0.00,,,0.03,meteohub,2013-11-28 21:47:00,
2013-11-28 16:52:00,57.4,48.7,30.25,North,0,5.0,12.0,73,0.00,,,0.03,meteohub,2013-11-28 21:52:00,
2013-11-28 16:57:00,57.4,48.7,30.26,NW,317,3.0,12.0,73,0.00,,,0.03,meteohub,2013-11-28 21:57:00,
2013-11-28 17:02:00,57.0,48.7,30.26,NW,326,8.0,12.0,74,0.00,,,0.03,meteohub,2013-11-28 22:02:00,
2013-11-28 17:07:00,56.7,48.4,30.26,NW,323,8.0,12.0,74,0.00,,,0.03,meteohub,2013-11-28 22:07:00,
2013-11-28 17:12:00,56.7,48.7,30.26,NNW,329,4.0,12.0,75,0.00,,,0.03,meteohub,2013-11-28 22:12:00,
2013-11-28 17:17:00,56.5,48.7,30.26,NNW,347,5.0,10.0,75,0.00,,,0.03,meteohub,2013-11-28 22:17:00,
2013-11-28 17:22:00,56.5,48.7,30.26,NNW,340,4.0,10.0,75,0.00,,,0.03,meteohub,2013-11-28 22:22:00,
2013-11-28 17:27:00,56.1,48.4,30.27,North,355,3.0,10.0,75,0.00,,,0.03,meteohub,2013-11-28 22:27:00,
2013-11-28 17:32:00,56.1,48.7,30.27,NNW,347,3.0,10.0,76,0.00,,,0.03,meteohub,2013-11-28 22:32:00,
2013-11-28 17:37:00,55.9,48.6,30.27,NNW,334,7.0,10.0,76,0.00,,,0.03,meteohub,2013-11-28 22:37:00,
2013-11-28 17:42:00,55.9,48.6,30.27,NW,319,6.0,11.0,76,0.00,,,0.03,meteohub,2013-11-28 22:42:00,
2013-11-28 17:47:00,55.9,48.6,30.27,NNW,331,6.0,11.0,76,0.00,,,0.03,meteohub,2013-11-28 22:47:00,
2013-11-28 17:52:00,55.9,48.6,30.27,NNW,347,9.0,10.0,76,0.00,,,0.03,meteohub,2013-11-28 22:52:00,
2013-11-28 17:57:00,55.8,48.7,30.27,NNW,348,5.0,10.0,77,0.00,,,0.03,meteohub,2013-11-28 22:57:00,
2013-11-28 18:02:00,55.8,48.7,30.27,North,350,4.0,10.0,77,0.00,,,0.03,meteohub,2013-11-28 23:02:00,
2013-11-28 18:07:00,55.8,48.7,30.27,NNW,346,2.0,11.0,77,0.00,,,0.03,meteohub,2013-11-28 23:07:00,
2013-11-28 18:12:00,55.6,48.6,30.27,North,355,7.0,11.0,77,0.00,,,0.03,meteohub,2013-11-28 23:12:00,
2013-11-28 18:17:00,55.6,48.9,30.27,North,5,6.0,11.0,78,0.00,,,0.03,meteohub,2013-11-28 23:17:00,
2013-11-28 18:22:00,55.4,48.7,30.27,NNW,340,6.0,9.0,78,0.00,,,0.03,meteohub,2013-11-28 23:22:00,
2013-11-28 18:27:00,55.2,48.7,30.27,NNW,327,5.0,10.0,79,0.00,,,0.03,meteohub,2013-11-28 23:27:00,
2013-11-28 18:32:00,55.2,48.7,30.28,NNW,336,4.0,10.0,79,0.00,,,0.03,meteohub,2013-11-28 23:32:00,
2013-11-28 18:37:00,55.2,48.7,30.28,North,355,4.0,10.0,79,0.00,,,0.03,meteohub,2013-11-28 23:37:00,
2013-11-28 18:42:00,55.0,48.9,30.28,North,351,4.0,10.0,80,0.00,,,0.03,meteohub,2013-11-28 23:42:00,
2013-11-28 18:47:00,55.0,48.9,30.28,NNW,346,2.0,9.0,80,0.00,,,0.03,meteohub,2013-11-28 23:47:00,
2013-11-28 18:52:00,55.0,49.3,30.28,NNW,338,3.0,9.0,81,0.00,,,0.03,meteohub,2013-11-28 23:52:00,
2013-11-28 18:57:00,55.0,49.3,30.28,North,0,2.0,8.0,81,0.00,,,0.03,meteohub,2013-11-28 23:57:00,
2013-11-28 19:02:00,54.9,49.5,30.28,North,355,5.0,8.0,82,0.00,,,0.03,meteohub,2013-11-29 00:02:00,
2013-11-28 19:07:00,54.9,49.5,30.29,NNW,347,1.0,8.0,82,0.00,,,0.03,meteohub,2013-11-29 00:07:00,
2013-11-28 19:12:00,54.7,49.3,30.30,NNW,327,5.0,7.0,82,0.00,,,0.03,meteohub,2013-11-29 00:12:00,
2013-11-28 19:17:00,54.7,49.3,30.30,North,355,3.0,7.0,82,0.00,,,0.03,meteohub,2013-11-29 00:17:00,
2013-11-28 19:22:00,54.9,49.8,30.30,North,11,6.0,8.0,83,0.00,,,0.03,meteohub,2013-11-29 00:22:00,
2013-11-28 19:27:00,54.9,49.5,30.30,North,355,3.0,8.0,82,0.00,,,0.03,meteohub,2013-11-29 00:27:00,
2013-11-28 19:32:00,54.9,49.5,30.30,North,5,4.0,8.0,82,0.00,,,0.03,meteohub,2013-11-29 00:32:00,
2013-11-28 19:37:00,54.9,49.5,30.30,NNW,333,3.0,8.0,82,0.00,,,0.03,meteohub,2013-11-29 00:37:00,
2013-11-28 19:42:00,55.0,50.0,30.31,North,355,3.0,8.0,83,0.00,,,0.03,meteohub,2013-11-29 00:42:00,
2013-11-28 19:47:00,55.0,49.6,30.31,North,5,3.0,8.0,82,0.00,,,0.03,meteohub,2013-11-29 00:47:00,
2013-11-28 19:52:00,55.0,50.0,30.31,North,351,5.0,8.0,83,0.00,,,0.03,meteohub,2013-11-29 00:52:00,
2013-11-28 19:57:00,55.0,50.0,30.31,NNE,13,2.0,8.0,83,0.00,,,0.03,meteohub,2013-11-29 00:57:00,
2013-11-28 20:02:00,55.0,50.0,30.31,North,9,6.0,7.0,83,0.00,,,0.03,meteohub,2013-11-29 01:02:00,
2013-11-28 20:07:00,54.9,49.8,30.31,NNE,12,4.0,9.0,83,0.00,,,0.03,meteohub,2013-11-29 01:07:00,
2013-11-28 20:12:00,54.9,50.2,30.31,NNE,19,1.0,9.0,84,0.00,,,0.03,meteohub,2013-11-29 01:12:00,
2013-11-28 20:17:00,54.9,50.2,30.31,NNE,29,2.0,8.0,84,0.00,,,0.03,meteohub,2013-11-29 01:17:00,
2013-11-28 20:22:00,54.7,50.0,30.30,NNE,30,3.0,7.0,84,0.00,,,0.03,meteohub,2013-11-29 01:22:00,
2013-11-28 20:27:00,54.5,49.8,30.31,NNE,28,1.0,7.0,84,0.00,,,0.03,meteohub,2013-11-29 01:27:00,
2013-11-28 20:32:00,54.3,49.8,30.31,North,355,4.0,7.0,85,0.00,,,0.03,meteohub,2013-11-29 01:32:00,
2013-11-28 20:37:00,54.1,49.8,30.31,North,5,0.0,8.0,85,0.00,,,0.03,meteohub,2013-11-29 01:37:00,
2013-11-28 20:42:00,54.0,49.6,30.31,North,355,5.0,8.0,85,0.00,,,0.03,meteohub,2013-11-29 01:42:00,
2013-11-28 20:47:00,54.0,49.6,30.31,North,0,1.0,8.0,85,0.00,,,0.03,meteohub,2013-11-29 01:47:00,
2013-11-28 20:52:00,53.8,49.6,30.31,NNE,28,2.0,7.0,86,0.00,,,0.03,meteohub,2013-11-29 01:52:00,
2013-11-28 20:57:00,53.8,49.6,30.31,North,11,3.0,7.0,86,0.00,,,0.03,meteohub,2013-11-29 01:57:00,
2013-11-28 21:02:00,53.6,49.5,30.31,North,9,4.0,7.0,86,0.00,,,0.03,meteohub,2013-11-29 02:02:00,
2013-11-28 21:07:00,53.6,49.5,30.31,North,0,1.0,7.0,86,0.00,,,0.03,meteohub,2013-11-29 02:07:00,
2013-11-28 21:12:00,53.4,49.3,30.32,NNE,13,5.0,7.0,86,0.00,,,0.03,meteohub,2013-11-29 02:12:00,
2013-11-28 21:17:00,53.4,49.3,30.32,NNE,19,2.0,8.0,86,0.00,,,0.03,meteohub,2013-11-29 02:17:00,
2013-11-28 21:22:00,53.4,49.1,30.32,NNE,24,0.0,8.0,85,0.00,,,0.03,meteohub,2013-11-29 02:22:00,
2013-11-28 21:27:00,53.2,49.1,30.32,NNE,17,4.0,8.0,86,0.00,,,0.03,meteohub,2013-11-29 02:27:00,
2013-11-28 21:32:00,53.2,49.1,30.31,NNE,33,7.0,7.0,86,0.00,,,0.03,meteohub,2013-11-29 02:32:00,
2013-11-28 21:37:00,53.2,49.1,30.32,NNE,15,2.0,7.0,86,0.00,,,0.03,meteohub,2013-11-29 02:37:00,
2013-11-28 21:42:00,53.1,48.9,30.32,North,5,5.0,7.0,86,0.00,,,0.03,meteohub,2013-11-29 02:42:00,
2013-11-28 21:47:00,53.1,49.3,30.31,North,5,1.0,8.0,87,0.00,,,0.03,meteohub,2013-11-29 02:47:00,
2013-11-28 21:52:00,52.9,49.1,30.31,NNW,335,2.0,8.0,87,0.00,,,0.03,meteohub,2013-11-29 02:52:00,
2013-11-28 21:57:00,52.5,48.7,30.32,North,351,4.0,8.0,87,0.00,,,0.03,meteohub,2013-11-29 02:57:00,
2013-11-28 22:02:00,52.3,48.6,30.32,North,5,4.0,6.0,87,0.00,,,0.03,meteohub,2013-11-29 03:02:00,
2013-11-28 22:07:00,52.5,49.1,30.32,NNE,19,2.0,6.0,88,0.00,,,0.03,meteohub,2013-11-29 03:07:00,
2013-11-28 22:12:00,52.3,48.6,30.32,North,355,4.0,7.0,87,0.00,,,0.03,meteohub,2013-11-29 03:12:00,
2013-11-28 22:17:00,52.3,48.6,30.32,NNW,346,6.0,7.0,87,0.00,,,0.03,meteohub,2013-11-29 03:17:00,
2013-11-28 22:22:00,52.2,48.4,30.32,North,355,4.0,8.0,87,0.00,,,0.03,meteohub,2013-11-29 03:22:00,
2013-11-28 22:27:00,52.2,48.7,30.31,North,5,3.0,8.0,88,0.00,,,0.03,meteohub,2013-11-29 03:27:00,
2013-11-28 22:32:00,52.2,48.7,30.31,NNW,344,3.0,8.0,88,0.00,,,0.03,meteohub,2013-11-29 03:32:00,
2013-11-28 22:37:00,52.2,48.7,30.31,North,351,5.0,8.0,88,0.00,,,0.03,meteohub,2013-11-29 03:37:00,
2013-11-28 22:42:00,52.0,48.6,30.31,North,5,4.0,8.0,88,0.00,,,0.03,meteohub,2013-11-29 03:42:00,
2013-11-28 22:47:00,52.0,48.9,30.32,North,355,4.0,8.0,89,0.00,,,0.03,meteohub,2013-11-29 03:47:00,
2013-11-28 22:52:00,52.0,48.9,30.32,North,5,4.0,8.0,89,0.00,,,0.03,meteohub,2013-11-29 03:52:00,
2013-11-28 22:57:00,51.8,48.7,30.32,NNE,26,5.0,7.0,89,0.00,,,0.03,meteohub,2013-11-29 03:57:00,
2013-11-28 23:02:00,51.8,48.7,30.31,North,9,4.0,10.0,89,0.00,,,0.03,meteohub,2013-11-29 04:02:00,
2013-11-28 23:07:00,51.6,48.6,30.31,NNE,21,6.0,10.0,89,0.00,,,0.03,meteohub,2013-11-29 04:07:00,
2013-11-28 23:12:00,51.6,48.7,30.31,NNE,28,6.0,10.0,90,0.00,,,0.03,meteohub,2013-11-29 04:12:00,
2013-11-28 23:17:00,51.4,48.6,30.31,NNE,32,4.0,9.0,90,0.00,,,0.03,meteohub,2013-11-29 04:17:00,
2013-11-28 23:22:00,51.4,48.6,30.31,North,355,3.0,9.0,90,0.00,,,0.03,meteohub,2013-11-29 04:22:00,
2013-11-28 23:27:00,51.3,48.4,30.31,NNE,26,1.0,11.0,90,0.00,,,0.03,meteohub,2013-11-29 04:27:00,
2013-11-28 23:32:00,51.3,48.4,30.31,NE,36,12.0,12.0,90,0.00,,,0.03,meteohub,2013-11-29 04:32:00,
2013-11-28 23:37:00,51.1,48.2,30.31,NE,35,5.0,12.0,90,0.00,,,0.03,meteohub,2013-11-29 04:37:00,
2013-11-28 23:42:00,51.1,48.2,30.31,NNE,28,8.0,12.0,90,0.00,,,0.03,meteohub,2013-11-29 04:42:00,
2013-11-28 23:47:00,51.1,48.2,30.31,NE,43,3.0,12.0,90,0.00,,,0.03,meteohub,2013-11-29 04:47:00,
2013-11-28 23:52:00,51.1,48.2,30.31,North,11,3.0,11.0,90,0.00,,,0.03,meteohub,2013-11-29 04:52:00,
2013-11-28 23:57:00,50.9,48.0,30.31,NNE,28,6.0,11.0,90,0.00,,,0.03,meteohub,2013-11-29 04:57:00,